AgMet,15min,monroe,124,15FEB2018:00:00:00,12.7,40.49,40.5,41.3,39.6,60,62.7,57,0.5090,27.6,9.39,9.5,204,10,13.8,10.10,.,0,.0003032,.0003604
AgMet,15min,monroe,124,15FEB2018:00:15:00,12.7,39.57,40.0,41.0,39.4,62,63.99,58,0.5260,28.0,7.817,8.6,209,10,12.1,10.10,.,0,.0002738,.0003291
AgMet,15min,monroe,124,15FEB2018:00:30:00,12.69,39.39,39.7,40.1,39.2,64,66.6,63,0.5450,28.7,7.975,7.9,201,11,13.2,10.10,.,0,.0002455,.0002977
AgMet,15min,monroe,124,15FEB2018:00:45:00,12.68,39.15,39.4,39.9,39.0,67,69.41,65,0.5600,29.4,8.63,8.4,207,14,13.8,10.10,.,0,.0002295,.0002761
AgMet,15min,monroe,124,15FEB2018:01:00:00,12.67,36.28,38.2,39.5,36.2,76,88.3,68,0.6400,31.4,13.72,11.0,203,10,20.2,10.10,.,0,.0001767,.0002058
AgMet,15min,monroe,124,15FEB2018:01:15:00,12.67,35.6,35.7,36.4,35.4,92,93.9,88,0.6620,33.6,10.22,12.4,197,13,15.6,10.09,.,0,.0000573,.0000655
AgMet,15min,monroe,124,15FEB2018:01:30:00,12.66,35.42,35.9,36.5,35.2,91,93.8,89,0.6500,33.6,6.975,8.1,189,23,11.0,10.09,.,0,.0000558,.0000668
AgMet,15min,monroe,124,15FEB2018:01:45:00,12.66,37.8,36.9,38.6,35.2,84,93.5,73,0.5760,32.3,8.51,7.6,189,15,13.4,10.09,.,0,.0001050,.0001272
AgMet,15min,monroe,124,15FEB2018:02:00:00,12.65,37.99,37.8,39.5,37.0,73,78.98,66,0.5490,30.0,7.572,8.6,205,24,14.3,10.10,.,0,.0001807,.0002161
AgMet,15min,monroe,124,15FEB2018:02:15:00,12.65,39.52,38.2,41.2,37.1,73,78.96,58,0.5550,30.1,7.784,7.1,206,15,18.2,10.10,.,0,.0001750,.0002143
AgMet,15min,monroe,124,15FEB2018:02:30:00,12.64,37.2,38.1,39.5,37.1,71,76.07,68,0.5270,29.6,9.53,8.7,273,44,19.3,10.10,.,0,.0001938,.0002317
AgMet,15min,monroe,124,15FEB2018:02:45:00,12.63,37.45,37.3,37.6,37.0,68,70.14,66,0.5050,27.6,8.46,9.4,319,10,13.6,10.10,.,0,.0002205,.0002607
AgMet,15min,monroe,124,15FEB2018:03:00:00,12.62,36.83,37.3,37.6,36.8,64,66.85,62,0.4700,26.3,9.7,9.2,318,9,14.9,10.10,.,0,.0002410,.0002859
AgMet,15min,monroe,124,15FEB2018:03:15:00,12.62,36.23,36.6,37.1,36.0,64,66.24,62,0.4700,25.6,9.88,9.2,321,9,15.6,10.10,.,0,.0002368,.0002803
AgMet,15min,monroe,124,15FEB2018:03:30:00,12.61,35.8,36.1,36.4,35.7,64,65.96,63,0.4690,25.3,13.07,11.6,321,7,18.9,10.10,.,0,.0002489,.0002873
AgMet,15min,monroe,124,15FEB2018:03:45:00,12.61,35.25,35.3,35.8,34.9,67,67.8,65,0.4620,25.3,12.41,13.1,321,10,17.3,10.10,.,0,.0002366,.0002694
AgMet,15min,monroe,124,15FEB2018:04:00:00,12.59,33.84,34.6,35.4,33.8,77,86.6,66,0.5690,28.1,9.08,10.6,11,12,14.3,10.10,.,0,.0001519,.0001765
AgMet,15min,monroe,124,15FEB2018:04:15:00,12.58,32.14,33.0,34.0,32.0,92,96.4,87,0.5920,30.9,10.49,9.6,7,16,16.2,10.10,.,0,.0000481,.0000562
AgMet,15min,monroe,124,15FEB2018:04:30:00,12.58,31.41,31.6,32.1,31.2,99,100.1,96,0.5970,31.4,9.72,10.4,29,8,15.8,10.09,.,0,.0000069,.0000079
AgMet,15min,monroe,124,15FEB2018:04:45:00,12.57,31.11,31.2,31.4,31.0,100,100.1,100,0.5890,31.2,8.45,9.2,29,7,12.3,10.09,.,0,.0000008,.0000009
AgMet,15min,monroe,124,15FEB2018:05:00:00,12.56,31.05,31.0,31.2,30.9,100,100.1,100,0.5880,31.0,8.84,8.4,20,8,12.7,10.09,.,0,.0000009,.0000009
AgMet,15min,monroe,124,15FEB2018:05:15:00,12.56,30.92,30.9,31.1,30.7,100,100.1,100,0.5850,30.9,8.63,8.8,22,7,12.5,10.10,.,0,.0000009,.0000009
AgMet,15min,monroe,124,15FEB2018:05:30:00,12.56,30.74,30.9,31.1,30.6,100,100.1,100,0.5810,30.9,8.75,8.6,22,11,12.9,10.10,.,0,.0000009,.0000009
AgMet,15min,monroe,124,15FEB2018:05:45:00,12.55,30.5,30.6,30.9,30.5,100,100.1,100,0.5750,30.6,9.24,9.3,21,9,14.9,10.10,.,0,.0000008,.0000009
AgMet,15min,monroe,124,15FEB2018:06:00:00,12.54,30.74,30.7,30.9,30.5,100,100.1,100,0.5790,30.7,11.25,9.9,5,12,18.2,10.10,.,0,.0000010,.0000010
AgMet,15min,monroe,124,15FEB2018:06:15:00,12.54,30.13,30.5,30.9,30.1,100,100.1,99,0.5660,30.5,12.1,12.0,10,10,18.2,10.11,.,0,.0000020,.0000022
AgMet,15min,monroe,124,15FEB2018:06:30:00,12.54,29.89,30.0,30.3,29.8,100,100.1,100,0.5610,30.0,7.522,10.2,26,13,12.7,10.13,.,0,.0000008,.0000008
AgMet,15min,monroe,124,15FEB2018:06:45:00,12.53,29.95,29.9,30.1,29.8,100,100.1,100,0.5620,29.9,3.107,5.3,22,25,7.5,10.13,.,0,.0000012,.0000014
AgMet,15min,monroe,124,15FEB2018:07:00:00,12.53,29.77,29.9,30.1,29.7,100,100.1,100,0.5580,29.9,1.45,1.6,139,55,3.5,10.14,.,0,.0000021,.0000028
AgMet,15min,monroe,124,15FEB2018:07:15:00,12.53,29.95,29.9,30.1,29.6,100,100.1,100,0.5630,29.9,3.512,2.4,224,16,6.6,10.14,.,0,.0000025,.0000031
AgMet,15min,monroe,124,15FEB2018:07:30:00,12.53,30.44,30.3,30.6,29.9,100,100.1,100,0.5740,30.3,3.789,4.1,211,16,6.4,10.14,.,3,.0000046,.0000055
AgMet,15min,monroe,124,15FEB2018:07:45:00,12.53,30.51,30.4,30.6,30.2,100,100.1,100,0.5750,30.4,5.102,3.9,262,15,8.1,10.14,.,10,-.000045,-.000048
AgMet,15min,monroe,124,15FEB2018:08:00:00,12.52,30.69,30.6,30.8,30.3,100,100.1,100,0.5800,30.6,3.228,4.9,175,60,7.2,10.15,.,24,-.000010,-.000011
AgMet,15min,monroe,124,15FEB2018:08:15:00,12.53,30.57,30.6,30.9,30.4,100,100.1,100,0.5770,30.6,2.202,2.1,249,68,5.7,10.15,.,44,.0000662,.0000703
AgMet,15min,monroe,124,15FEB2018:08:30:00,12.53,30.69,30.5,30.8,30.3,100,100.1,100,0.5800,30.5,3.173,3.1,243,32,8.3,10.15,.,55,.0001398,.0001484
AgMet,15min,monroe,124,15FEB2018:08:45:00,12.54,30.87,30.6,31.1,30.4,100,100.1,100,0.5840,30.6,4.439,3.5,269,14,7.0,10.15,.,77,.0002103,.0002231
AgMet,15min,monroe,124,15FEB2018:09:00:00,12.55,31.18,31.1,31.4,30.9,100,100.1,100,0.5910,31.2,2.749,3.7,280,14,4.4,10.16,.,91,.0002713,.0002878
AgMet,15min,monroe,124,15FEB2018:09:15:00,12.6,31.6,31.4,31.8,31.1,100,100.1,100,0.6010,31.4,5.105,3.5,194,16,8.3,10.16,.,135,.0003966,.0004208
AgMet,15min,monroe,124,15FEB2018:09:30:00,12.65,32.09,31.9,32.1,31.6,100,100.1,100,0.6140,31.9,3.888,5.3,228,53,7.2,10.16,.,124,.0003754,.0003976
AgMet,15min,monroe,124,15FEB2018:09:45:00,12.93,32.52,32.1,32.5,31.7,100,100.1,99,0.6200,32.1,2.915,3.1,340,62,6.4,10.17,.,192,.0006099,.0006482
AgMet,15min,monroe,124,15FEB2018:10:00:00,13.9,33.43,33.5,34.4,32.3,96,99.5,94,0.6150,32.6,3.998,3.1,138,40,7.5,10.17,.,510,.0016545,.0017697
AgMet,15min,monroe,124,15FEB2018:10:15:00,13.75,35.69,34.6,35.8,33.4,93,96.1,90,0.6440,32.8,5.289,5.0,177,10,7.9,10.18,.,566,.0017986,.0019436
AgMet,15min,monroe,124,15FEB2018:10:30:00,13.72,34.9,35.3,36.2,34.3,89,91.1,86,0.5980,32.3,4.549,4.8,181,12,6.6,10.18,.,490,.0015864,.0017416
AgMet,15min,monroe,124,15FEB2018:10:45:00,13.68,36.42,35.7,36.9,34.9,82,87.4,70,0.5380,30.8,5.049,4.7,179,21,9.4,10.18,.,671,.0023413,.0025771
AgMet,15min,monroe,124,15FEB2018:11:00:00,13.66,35.49,36.0,36.7,35.4,69,78.05,64,0.4770,26.6,8.06,6.7,267,25,12.9,10.18,.,388,.0014905,.0017967
AgMet,15min,monroe,124,15FEB2018:11:15:00,13.47,35.12,35.4,35.9,34.9,64,68.64,59,0.4500,24.3,6.869,7.5,260,12,12.1,10.17,.,240,.0011424,.0014801
AgMet,15min,monroe,124,15FEB2018:11:30:00,13.74,38.17,36.9,38.2,34.9,60,67.65,54,0.4380,24.5,7.457,6.9,258,27,15.1,10.17,.,607,.0022374,.0026575
AgMet,15min,monroe,124,15FEB2018:11:45:00,13.7,38.53,38.5,39.4,37.6,52,58.8,44,0.3890,22.3,10.52,9.5,307,13,16.9,10.18,.,707,.0027218,.0033348
AgMet,15min,monroe,124,15FEB2018:12:00:00,13.7,38.78,38.9,40.0,38.1,52,59.3,46,0.3910,22.6,10.43,10.2,301,15,16.4,10.18,.,733,.0028246,.0034715
AgMet,15min,monroe,124,15FEB2018:12:15:00,13.7,39.27,38.5,39.5,37.9,47,52.89,42,0.4200,20.1,11.13,11.4,306,24,18.2,10.18,.,683,.0026713,.0033876
AgMet,15min,monroe,124,15FEB2018:12:30:00,13.71,39.39,38.8,39.9,38.1,48,53.77,43,0.4160,20.6,7.907,9.2,285,18,15.6,10.18,.,769,.0030153,.0036818
AgMet,15min,monroe,124,15FEB2018:12:45:00,13.71,37.13,38.9,39.8,37.1,47,52.18,41,0.3450,20.5,10.62,8.4,275,20,18.9,10.18,.,663,.0026663,.0032872
AgMet,15min,monroe,124,15FEB2018:13:00:00,13.72,37.56,39.1,40.8,37.0,47,50.11,42,0.3790,20.5,12.42,11.7,300,14,20.2,10.18,.,674,.0026844,.0034225
AgMet,15min,monroe,124,15FEB2018:13:15:00,13.73,37.31,37.2,38.3,35.9,58,64.8,49,0.4590,23.6,14.33,13.5,313,12,21.7,10.17,.,510,.0019877,.0025832
AgMet,15min,monroe,124,15FEB2018:13:30:00,13.74,36.46,37.6,39.3,36.2,54,63.04,48,0.4110,22.6,12.3,13.3,303,13,20.8,10.17,.,580,.0022213,.0028685
AgMet,15min,monroe,124,15FEB2018:13:45:00,13.76,35.85,36.0,37.0,35.2,53,58.18,49,0.3710,20.6,11.02,12.1,313,14,16.4,10.17,.,358,.0016436,.0022221
AgMet,15min,monroe,124,15FEB2018:14:00:00,13.79,35.91,36.1,37.0,35.6,51,56.93,48,0.3500,19.9,12.55,11.5,334,17,21.9,10.16,.,278,.0014774,.0020530
AgMet,15min,monroe,124,15FEB2018:14:15:00,13.79,34.87,35.1,36.2,34.5,60,66.63,49,0.3960,22.7,8.66,10.8,55,31,24.1,10.16,.,347,.0014631,.0019210
AgMet,15min,monroe,124,15FEB2018:14:30:00,13.88,35.11,35.2,35.9,34.7,57,59.95,54,0.3870,21.3,8.89,8.6,76,15,14.7,10.16,.,243,.0012347,.0016592
AgMet,15min,monroe,124,15FEB2018:14:45:00,13.32,34.99,35.1,35.6,34.7,56,58.05,53,0.3850,20.9,8.74,9.4,55,12,15.3,10.16,.,183,.0011048,.0015516
AgMet,15min,monroe,124,15FEB2018:15:00:00,13.25,35.54,35.0,35.6,34.7,52,56.22,44,0.3170,19.1,8.76,9.1,44,67,18.6,10.16,.,165,.0010927,.0015622
AgMet,15min,monroe,124,15FEB2018:15:15:00,13.26,35.3,35.4,35.9,35.0,44,47.4,41,0.3220,15.8,11.39,9.5,322,12,18.6,10.16,.,192,.0012621,.0018251
AgMet,15min,monroe,124,15FEB2018:15:30:00,13.29,35.73,35.4,35.9,35.1,46,49.19,43,0.3210,16.5,7.826,9.4,332,16,13.2,10.16,.,172,.0011849,.0017299
AgMet,15min,monroe,124,15FEB2018:15:45:00,13.95,36.95,36.3,37.4,35.6,43,47.94,40,0.3170,16.2,9.1,7.6,337,20,19.1,10.16,.,329,.0014969,.0020201
AgMet,15min,monroe,124,15FEB2018:16:00:00,13.86,38.53,37.4,38.7,36.1,41,42.82,35,0.3040,15.6,12.04,11.4,334,24,23.2,10.17,.,474,.0020360,.0027688
AgMet,15min,monroe,124,15FEB2018:16:15:00,13.84,35.73,36.8,38.7,35.7,38,41.73,33,0.2830,13.3,10.9,11.6,299,31,19.5,10.17,.,304,.0015580,.0022929
AgMet,15min,monroe,124,15FEB2018:16:30:00,13.84,36.34,35.9,36.6,35.1,40,42.54,37,0.2700,13.8,10.09,10.9,343,14,18.2,10.16,.,218,.0012812,.0019423
AgMet,15min,monroe,124,15FEB2018:16:45:00,13.81,35.6,36.5,37.1,35.6,38,40.34,35,0.2680,13.1,8.45,8.6,341,18,15.1,10.16,.,263,.0012713,.0018733
AgMet,15min,monroe,124,15FEB2018:17:00:00,13.8,35.66,35.6,36.2,35.1,38,39.76,36,0.2680,12.5,9.3,9.5,334,10,14.7,10.16,.,212,.0011139,.0017277
AgMet,15min,monroe,124,15FEB2018:17:15:00,13.8,34.81,35.1,35.7,34.7,38,39.39,35,0.2580,11.9,12.36,9.7,334,12,20.4,10.16,.,174,.0009934,.0016022
AgMet,15min,monroe,124,15FEB2018:17:30:00,13.82,34.38,34.6,34.9,34.3,38,39.69,37,0.2550,11.8,9.71,12.4,324,11,16.0,10.16,.,137,.0009820,.0016647
AgMet,15min,monroe,124,15FEB2018:17:45:00,13.18,33.47,34.2,34.7,33.4,39,42.31,37,0.2690,11.7,5.509,7.2,329,15,9.6,10.16,.,84,.0005303,.0009934
AgMet,15min,monroe,124,15FEB2018:18:00:00,12.97,31.27,32.4,33.5,31.2,46,50.69,39,0.3000,13.6,4.63,4.8,15,14,6.4,10.15,.,23,.0000826,.0003585
AgMet,15min,monroe,124,15FEB2018:18:15:00,12.9,29.74,30.5,31.3,29.6,52,52.96,50,0.2930,14.8,3.64,4.3,35,5,5.7,10.15,.,6,.0000666,.0001007
AgMet,15min,monroe,124,15FEB2018:18:30:00,12.86,28.83,29.2,29.8,28.6,54,57.03,53,0.2980,14.6,3.141,3.3,13,11,5.3,10.14,.,1,.0000130,.0000349
AgMet,15min,monroe,124,15FEB2018:18:45:00,12.84,25.6,27.8,28.9,25.5,56,58.6,54,0.2750,14.1,2.646,2.9,329,23,5.0,10.14,.,0,-.000015,-.000003
AgMet,15min,monroe,124,15FEB2018:19:00:00,12.82,25.73,26.0,27.0,25.5,58,59.59,55,0.2710,13.2,3.482,2.9,294,16,5.5,10.14,.,0,-.000016,-.000004
AgMet,15min,monroe,124,15FEB2018:19:15:00,12.81,25.67,25.4,25.9,24.6,58,59.39,57,0.2730,12.8,4.931,4.2,292,6,7.9,10.13,.,0,.0000252,.0000457
AgMet,15min,monroe,124,15FEB2018:19:30:00,12.8,24.94,25.4,26.0,24.8,58,58.34,57,0.2660,12.6,5.623,5.6,293,6,7.9,10.14,.,0,.0000656,.0000917
AgMet,15min,monroe,124,15FEB2018:19:45:00,12.79,27.39,26.8,28.1,24.8,52,60.14,47,0.2460,11.6,2.474,3.8,254,87,4.6,10.14,.,0,.0000326,.0000577
AgMet,15min,monroe,124,15FEB2018:20:00:00,12.78,24.64,25.8,27.5,24.5,53,55.47,49,0.2480,11.0,3.553,3.0,255,9,5.0,10.14,.,0,.0000001,.0000169
AgMet,15min,monroe,124,15FEB2018:20:15:00,12.77,25.99,25.7,27.6,24.3,52,55.88,47,0.2490,10.6,3.093,3.3,271,16,5.5,10.14,.,0,.0000152,.0000359
AgMet,15min,monroe,124,15FEB2018:20:30:00,12.76,24.53,24.8,26.0,23.8,55,56.97,52,0.2490,10.8,3.68,3.3,269,8,6.4,10.14,.,0,.0000056,.0000228
AgMet,15min,monroe,124,15FEB2018:20:45:00,12.76,23.55,24.3,25.0,23.4,56,57.68,54,0.2480,10.7,5.638,4.8,264,7,7.9,10.14,.,0,.0000496,.0000742
AgMet,15min,monroe,124,15FEB2018:21:00:00,12.74,23.98,24.1,25.6,22.8,55,57.51,50,0.2430,10.1,5.159,5.5,260,10,7.5,10.15,.,0,.0000701,.0000970
AgMet,15min,monroe,124,15FEB2018:21:15:00,12.74,24.96,24.8,25.9,22.2,54,59.01,50,0.2440,10.3,3.229,4.3,259,16,5.3,10.15,.,0,.0000434,.0000684
AgMet,15min,monroe,124,15FEB2018:21:30:00,12.73,23.98,23.9,25.0,22.7,58,62.84,53,0.2590,11.3,2.92,2.7,190,32,5.5,10.15,.,0,-.000023,-.000015
AgMet,15min,monroe,124,15FEB2018:21:45:00,12.72,20.99,23.1,24.6,20.7,59,64.37,56,0.2490,10.9,1.503,2.6,230,34,4.2,10.15,.,0,-.000031,-.000025
AgMet,15min,monroe,124,15FEB2018:22:00:00,12.72,21.05,21.5,22.4,20.7,63,66.17,60,0.2430,10.7,1.267,1.5,217,23,3.1,10.15,.,0,-.000089,-.000110
AgMet,15min,monroe,124,15FEB2018:22:15:00,12.71,21.84,21.6,22.8,20.7,61,64.51,58,0.2370,10.4,1.142,0.9,220,33,2.4,10.15,.,0,-.000122,-.000164
AgMet,15min,monroe,124,15FEB2018:22:30:00,12.71,22.58,22.2,23.7,20.1,58,62.57,55,0.2320,9.8,2.448,1.8,300,7,3.3,10.15,.,0,-.000065,-.000074
AgMet,15min,monroe,124,15FEB2018:22:45:00,12.7,20.38,20.0,22.6,19.3,67,69.33,56,0.2520,10.7,1.788,2.2,357,81,4.4,10.14,.,0,-.000056,-.000062
AgMet,15min,monroe,124,15FEB2018:23:00:00,12.69,22.16,21.5,22.2,20.3,64,66.85,61,0.2480,11.1,1.968,1.9,308,21,2.6,10.15,.,0,-.000068,-.000078
AgMet,15min,monroe,124,15FEB2018:23:15:00,12.69,18.68,19.9,22.2,18.7,65,67.92,61,0.2380,9.9,1.544,1.8,354,22,2.9,10.15,.,0,-.000069,-.000081
AgMet,15min,monroe,124,15FEB2018:23:30:00,12.68,20.7,19.8,20.8,18.4,67,69.14,64,0.2460,10.4,0.527,1.0,192,66,2.6,10.15,.,0,-.000115,-.000154
AgMet,15min,monroe,124,15FEB2018:23:45:00,12.68,17.89,21.1,22.2,17.9,61,64.49,59,0.2160,9.9,1.33,1.1,128,62,3.5,10.15,.,0,-.000106,-.000138
AgMet,15min,evanston,130,15FEB2018:00:00:00,12.62,24.81,25.1,25.4,24.8,82,84.4,80,0.3840,20.4,9.79,9.9,234,10,15.3,15.16,.,0,.0000743,.0000867
AgMet,15min,evanston,130,15FEB2018:00:15:00,12.61,24.56,24.8,25.1,24.5,85,86.7,84,0.3900,20.8,9.42,9.4,234,10,15.3,15.15,.,0,.0000601,.0000706
AgMet,15min,evanston,130,15FEB2018:00:30:00,12.6,24.38,24.5,24.7,24.3,88,88.8,87,0.3970,21.5,11.04,10.1,227,9,15.8,15.15,.,0,.0000470,.0000549
AgMet,15min,evanston,130,15FEB2018:00:45:00,12.6,24.5,24.4,24.6,24.2,89,89.1,89,0.3990,21.6,9.55,10.3,226,10,15.1,15.15,.,0,.0000427,.0000499
AgMet,15min,evanston,130,15FEB2018:01:00:00,12.59,24.56,24.6,24.7,24.4,89,89.1,89,0.3990,21.8,10.71,10.1,220,10,16.4,15.16,.,0,.0000432,.0000505
AgMet,15min,evanston,130,15FEB2018:01:15:00,12.59,24.32,24.5,24.6,24.2,89,89.1,89,0.3960,21.6,12.03,11.3,221,9,17.1,15.16,.,0,.0000449,.0000518
AgMet,15min,evanston,130,15FEB2018:01:30:00,12.58,24.08,24.2,24.4,24.0,89,88.9,88,0.3900,21.3,12.07,12.3,220,8,18.9,15.16,.,0,.0000469,.0000536
AgMet,15min,evanston,130,15FEB2018:01:45:00,12.58,23.96,24.0,24.2,23.8,87,88.3,86,0.3790,20.7,11.29,11.3,224,10,18.0,15.15,.,0,.0000517,.0000595
AgMet,15min,evanston,130,15FEB2018:02:00:00,12.57,23.71,23.7,24.0,23.5,87,87.4,86,0.3730,20.4,11.84,11.9,228,9,16.9,15.15,.,0,.0000539,.0000617
AgMet,15min,evanston,130,15FEB2018:02:15:00,12.57,23.77,23.7,23.9,23.5,85,85.8,84,0.3650,19.9,12.05,11.7,230,9,18.9,15.15,.,0,.0000617,.0000707
AgMet,15min,evanston,130,15FEB2018:02:30:00,12.56,23.53,23.7,23.9,23.5,83,83.9,83,0.3570,19.3,11.64,12.3,228,8,20.2,15.15,.,0,.0000717,.0000816
AgMet,15min,evanston,130,15FEB2018:02:45:00,12.56,23.22,23.3,23.6,23.0,83,83.9,83,0.3540,19.0,10.77,11.1,224,9,16.2,15.15,.,0,.0000676,.0000776
AgMet,15min,evanston,130,15FEB2018:03:00:00,12.55,23.53,23.3,23.6,23.1,82,83.2,81,0.3500,18.7,10.48,10.5,226,9,15.6,15.15,.,0,.0000707,.0000817
AgMet,15min,evanston,130,15FEB2018:03:15:00,12.54,23.1,23.3,23.6,23.0,81,83.3,81,0.3530,18.5,9.56,10.0,232,10,15.1,15.15,.,0,.0000729,.0000846
AgMet,15min,evanston,130,15FEB2018:03:30:00,12.53,22.49,22.7,23.2,22.2,85,86.9,83,0.3580,19.0,10.11,9.7,229,10,16.4,15.15,.,0,.0000541,.0000631
AgMet,15min,evanston,130,15FEB2018:03:45:00,12.52,22.43,22.5,22.7,22.2,87,87.6,87,0.3600,19.3,10.89,10.7,222,8,16.7,15.15,.,0,.0000480,.0000555
AgMet,15min,evanston,130,15FEB2018:04:00:00,12.52,21.94,22.3,22.7,21.8,87,87.7,86,0.3480,19.0,9.73,10.4,224,8,15.3,15.15,.,0,.0000477,.0000553
AgMet,15min,evanston,130,15FEB2018:04:15:00,12.51,21.88,22.0,22.2,21.7,86,86.4,85,0.3440,18.3,10.52,9.8,228,8,15.8,15.15,.,0,.0000522,.0000608
AgMet,15min,evanston,130,15FEB2018:04:30:00,12.5,22.98,22.3,23.1,21.8,85,85.6,84,0.3540,18.4,9.69,10.2,224,9,14.0,15.15,.,0,.0000573,.0000665
AgMet,15min,evanston,130,15FEB2018:04:45:00,12.5,22.74,22.8,23.3,22.4,82,84.1,82,0.3420,18.3,10.7,10.3,222,9,16.9,15.15,.,0,.0000681,.0000788
AgMet,15min,evanston,130,15FEB2018:05:00:00,12.49,23.35,23.0,23.5,22.6,82,82.8,81,0.3470,18.4,9.54,9.6,221,9,14.7,15.16,.,0,.0000673,.0000784
AgMet,15min,evanston,130,15FEB2018:05:15:00,12.48,22.25,22.9,23.4,22.3,81,81.5,81,0.3310,18.0,10.95,10.7,218,8,16.2,15.16,.,0,.0000751,.0000865
AgMet,15min,evanston,130,15FEB2018:05:30:00,12.46,21.82,22.2,22.5,21.8,82,82,81,0.3270,17.4,10.5,10.7,219,7,15.8,15.16,.,0,.0000715,.0000823
AgMet,15min,evanston,130,15FEB2018:05:45:00,12.46,21.27,21.6,22.0,21.2,82,82.9,82,0.3250,17.0,9.08,9.7,216,8,14.9,15.15,.,0,.0000648,.0000753
AgMet,15min,evanston,130,15FEB2018:06:00:00,12.45,20.96,21.1,21.4,20.8,84,84.2,83,0.3230,16.9,8.41,8.6,218,7,12.9,15.15,.,0,.0000550,.0000648
AgMet,15min,evanston,130,15FEB2018:06:15:00,12.44,19.92,20.4,21.2,19.8,83,83.8,83,0.3100,16.2,7.735,8.4,220,8,11.8,15.15,.,0,.0000539,.0000638
AgMet,15min,evanston,130,15FEB2018:06:30:00,12.43,20.72,20.0,20.8,19.7,83,84.1,83,0.3170,15.8,8.05,7.4,221,8,13.6,15.15,.,0,.0000502,.0000602
AgMet,15min,evanston,130,15FEB2018:06:45:00,12.43,19.98,20.3,20.9,19.6,83,83.6,82,0.3100,15.9,8.2,8.7,221,8,14.5,15.15,.,0,.0000572,.0000672
AgMet,15min,evanston,130,15FEB2018:07:00:00,12.43,20.04,20.2,20.6,19.7,83,84.2,82,0.3130,15.8,7.673,7.7,222,9,11.4,15.15,.,0,.0000539,.0000643
AgMet,15min,evanston,130,15FEB2018:07:15:00,12.43,20.65,20.6,21.0,20.0,85,85.3,84,0.3260,16.8,7.982,7.9,229,9,12.1,15.15,.,1,.0000481,.0000573
AgMet,15min,evanston,130,15FEB2018:07:30:00,12.42,22.13,21.5,22.2,20.6,85,85.6,84,0.3430,17.6,9.52,8.7,225,9,14.3,15.15,.,9,.0000579,.0000675
AgMet,15min,evanston,130,15FEB2018:07:45:00,12.41,22.56,22.5,22.7,22.1,85,86.7,84,0.3580,18.7,8.68,9.0,232,13,15.1,15.16,.,24,-.000052,.0000307
AgMet,15min,evanston,130,15FEB2018:08:00:00,12.41,22.44,22.4,22.6,22.1,88,88.4,87,0.3600,19.3,9.51,8.8,234,11,16.9,15.16,.,18,.0001148,.0001911
AgMet,15min,evanston,130,15FEB2018:08:15:00,12.44,22.19,22.5,22.7,22.1,87,87.7,85,0.3460,19.1,11.91,10.8,234,12,19.3,15.16,.,46,.0001574,.0002517
AgMet,15min,evanston,130,15FEB2018:08:30:00,12.46,22.62,22.4,22.7,22.1,84,85,84,0.3490,18.3,10.53,11.5,233,11,17.1,15.16,.,82,.0002370,.0003559
AgMet,15min,evanston,130,15FEB2018:08:45:00,12.47,22.19,22.4,22.7,22.1,82,84.7,81,0.3280,17.9,9.75,10.3,239,10,16.7,15.16,.,70,.0002836,.0004090
AgMet,15min,evanston,130,15FEB2018:09:00:00,13.08,23.23,22.9,23.4,22.1,78,80.6,76,0.3230,16.9,10.54,9.9,248,10,16.9,15.16,.,147,.0004272,.0005887
AgMet,15min,evanston,130,15FEB2018:09:15:00,14.22,24.58,24.0,24.7,23.2,75,76.06,73,0.3320,17.1,12.41,11.4,247,12,19.5,15.17,.,275,.0006617,.0008746
AgMet,15min,evanston,130,15FEB2018:09:30:00,14.04,24.71,24.8,25.3,24.3,75,77.56,72,0.3510,18.1,11.84,12.4,234,17,20.8,15.17,.,326,.0007853,.0010147
AgMet,15min,evanston,130,15FEB2018:09:45:00,13.46,22.98,24.4,25.8,23.0,74,78.55,68,0.3160,17.4,15.39,12.5,251,17,31.4,15.17,.,259,.0007233,.0009551
AgMet,15min,evanston,130,15FEB2018:10:00:00,13.23,23.84,23.8,25.1,22.5,75,78.03,73,0.3180,16.9,12.4,15.4,258,13,25.2,15.17,.,277,.0007386,.0009832
AgMet,15min,evanston,130,15FEB2018:10:15:00,13.16,24.39,24.2,25.1,23.8,70,73.32,65,0.2930,15.7,12.63,11.4,257,12,22.4,15.17,.,163,.0006513,.0008999
AgMet,15min,evanston,130,15FEB2018:10:30:00,13,22.49,23.6,25.7,22.4,69,74.54,64,0.3080,15.1,15.76,15.1,263,10,28.1,15.17,.,208,.0007288,.0010145
AgMet,15min,evanston,130,15FEB2018:10:45:00,12.9,23.28,22.6,23.3,22.2,75,77.44,71,0.3040,15.9,10.26,12.8,264,11,18.0,15.16,.,120,.0005138,.0007197
AgMet,15min,evanston,130,15FEB2018:11:00:00,14.17,24.63,23.7,24.9,23.1,67,71.41,64,0.2940,14.2,12.35,11.3,271,12,21.3,15.16,.,236,.0008147,.0010889
AgMet,15min,evanston,130,15FEB2018:11:15:00,13.38,24.51,24.6,26.2,23.3,63,67.69,60,0.3040,13.9,15.94,13.9,257,11,26.7,15.17,.,346,.0010608,.0014080
AgMet,15min,evanston,130,15FEB2018:11:30:00,13.06,22.06,23.4,24.7,22.0,71,72.57,67,0.2810,15.3,14.73,15.0,253,11,25.9,15.17,.,218,.0007461,.0010190
AgMet,15min,evanston,130,15FEB2018:11:45:00,13.21,22.48,22.5,23.2,22.0,71,72.77,69,0.3000,14.5,14.19,15.1,262,10,24.6,15.16,.,262,.0007902,.0010565
AgMet,15min,evanston,130,15FEB2018:12:00:00,14.11,24.94,22.8,25.1,21.9,72,74.2,64,0.2930,15.0,12.85,13.3,259,13,21.5,15.16,.,342,.0009300,.0011885
AgMet,15min,evanston,130,15FEB2018:12:15:00,13.94,26.04,25.8,27.3,24.6,64,67.38,58,0.2790,15.5,13.33,13.0,249,15,24.3,15.17,.,664,.0016975,.0020706
AgMet,15min,evanston,130,15FEB2018:12:30:00,13.35,24.08,25.5,26.4,24.1,63,66.36,58,0.2850,14.5,15.1,14.6,251,12,21.9,15.18,.,600,.0015440,.0019387
AgMet,15min,evanston,130,15FEB2018:12:45:00,13.95,26.28,24.6,28.0,23.2,66,69.45,58,0.2880,14.8,12.8,13.9,249,12,21.5,15.17,.,523,.0013503,.0016937
AgMet,15min,evanston,130,15FEB2018:13:00:00,13.27,22.6,24.7,27.1,22.1,64,70.37,59,0.2890,14.1,13.64,13.0,280,27,22.1,15.18,.,445,.0012601,.0016080
AgMet,15min,evanston,130,15FEB2018:13:15:00,13.01,21.49,22.2,22.9,21.4,72,75.18,70,0.2950,14.5,14.31,14.1,307,15,20.4,15.17,.,205,.0006910,.0009350
AgMet,15min,evanston,130,15FEB2018:13:30:00,13.31,22.97,22.1,23.6,20.5,71,76.99,62,0.2610,14.3,10.11,12.2,298,22,20.8,15.16,.,256,.0007816,.0010193
AgMet,15min,evanston,130,15FEB2018:13:45:00,13.29,23.21,23.9,26.1,22.8,60,62.8,57,0.2460,12.0,14.07,12.0,297,13,25.7,15.17,.,307,.0010277,.0013707
AgMet,15min,evanston,130,15FEB2018:14:00:00,13.63,23.46,24.1,25.1,23.1,58,62.77,54,0.2450,11.7,15.62,14.9,302,12,24.8,15.17,.,323,.0010709,.0014641
AgMet,15min,evanston,130,15FEB2018:14:15:00,13.21,21.49,23.6,25.2,21.3,60,67.03,56,0.2650,11.9,15.01,14.9,280,13,23.9,15.17,.,388,.0011247,.0015002
AgMet,15min,evanston,130,15FEB2018:14:30:00,13.26,20.94,20.6,21.5,20.0,72,74.36,67,0.2810,12.9,13.77,15.5,252,14,24.1,15.16,.,181,.0006149,.0008562
AgMet,15min,evanston,130,15FEB2018:14:45:00,14.01,23.89,23.5,24.6,20.9,64,72.66,61,0.2740,13.2,12.66,12.0,251,12,20.8,15.16,.,493,.0012455,.0015637
AgMet,15min,evanston,130,15FEB2018:15:00:00,13.96,25.79,24.9,26.0,23.5,61,65.73,58,0.2880,13.4,12.26,12.8,264,22,20.8,15.17,.,543,.0014227,.0017970
AgMet,15min,evanston,130,15FEB2018:15:15:00,14.03,21.25,22.8,26.0,21.0,69,73.61,61,0.2730,14.1,12.86,12.6,309,18,24.1,15.17,.,327,.0008818,.0011508
AgMet,15min,evanston,130,15FEB2018:15:30:00,13.23,22.97,21.9,23.7,21.2,69,72.49,63,0.2670,13.4,10.08,12.0,299,21,18.9,15.16,.,245,.0007212,.0009656
AgMet,15min,evanston,130,15FEB2018:15:45:00,14.06,24.68,23.6,25.4,22.1,59,63.62,54,0.2570,11.3,8.46,8.9,281,14,14.0,15.16,.,247,.0008269,.0011167
AgMet,15min,evanston,130,15FEB2018:16:00:00,14.05,24.56,24.9,25.9,23.2,56,62.67,53,0.2750,11.4,11.96,10.0,289,16,23.2,15.17,.,367,.0010754,.0014273
AgMet,15min,evanston,130,15FEB2018:16:15:00,14.06,21.62,23.0,24.6,21.5,62,68.39,57,0.2680,11.9,13.55,13.1,282,14,21.5,15.17,.,246,.0007509,.0010711
AgMet,15min,evanston,130,15FEB2018:16:30:00,14.01,21.74,21.9,22.5,21.4,69,71.19,65,0.2760,13.2,11.49,12.5,267,11,18.9,15.16,.,217,.0005831,.0008303
AgMet,15min,evanston,130,15FEB2018:16:45:00,14.06,22.78,22.7,23.2,21.7,65,69.01,62,0.2710,12.5,8.86,10.1,260,14,13.4,15.16,.,219,.0005928,.0008465
AgMet,15min,evanston,130,15FEB2018:17:00:00,14.08,22.66,22.7,23.3,21.6,62,64.92,59,0.2460,11.7,8.65,8.6,266,14,14.0,15.16,.,162,.0004573,.0006974